Location: Pallagorio
(39.3000°N, 16.9000°E)
Time: 08:36:54
(UTC+00:00)

NOSS 2-1 (D) - Visible Passes

Search period start: 11 May 2021 00:00
Search period end: 21 May 2021 00:00
Orbit: 431 x 1770 km, 63.3° (Epoch: 07 May)

Date Brightness Start Highest point End Pass type
(mag) Time Alt. Az. Time Alt. Az. Time Alt. Az.
11 May 4.5 00:45:47 10° NW 00:51:12 60° WSW 00:51:13 60° WSW visible
11 May 6.6 22:10:56 10° N 22:13:53 15° NE 22:17:21 10° ENE visible
11 May 4.4 23:59:30 10° NNW 00:04:51 83° ENE 00:05:02 82° E visible
12 May 6.3 01:51:36 10° WNW 01:52:16 12° W 01:52:16 12° W visible
12 May 5.0 23:13:28 10° NNW 23:18:30 50° NE 23:19:12 48° ENE visible
13 May 5.9 01:04:11 10° WNW 01:06:27 21° WNW 01:06:27 21° WNW visible
13 May 5.7 22:27:36 10° NNW 22:32:07 31° NE 22:33:34 28° ENE visible
14 May 5.3 00:17:27 10° NW 00:20:49 36° WNW 00:20:49 36° WNW visible
14 May 6.3 21:42:03 10° N 21:45:37 19° NE 21:48:04 15° ENE visible
14 May 4.6 23:31:05 10° NW 23:35:20 61° NW 23:35:20 61° NW visible
15 May 6.6 20:57:17 10° NNE 20:58:57 11° NE 21:00:46 10° ENE visible
15 May 4.6 22:44:55 10° NNW 22:49:56 63° NE 22:49:56 63° NE visible
16 May 6.3 00:36:10 10° WNW 00:37:13 14° WNW 00:37:13 14° WNW visible
16 May 5.3 21:58:59 10° NNW 22:03:46 38° NE 22:04:37 36° ENE visible
16 May 5.7 23:49:11 10° NW 23:51:55 27° WNW 23:51:55 27° WNW visible
17 May 5.9 21:13:16 10° N 21:17:20 23° NE 21:19:22 20° ENE visible
17 May 4.9 23:02:40 10° NW 23:06:40 50° WNW 23:06:40 50° WNW visible
18 May 6.4 20:28:00 10° N 20:30:44 14° NE 20:33:54 10° ENE visible
18 May 4.4 22:16:25 10° NNW 22:21:28 77° NNE 22:21:28 77° NNE visible
19 May 6.6 00:08:20 10° WNW 00:08:46 11° WNW 00:08:46 11° WNW visible
19 May 5.0 21:30:23 10° NNW 21:35:23 47° NE 21:36:20 44° E visible
19 May 5.9 23:21:01 10° WNW 23:23:38 24° W 23:23:38 24° W visible
20 May 5.6 20:44:34 10° N 20:48:59 29° NE 20:51:14 23° E visible
20 May 5.1 22:34:19 10° NW 22:38:32 45° W 22:38:32 45° W visible
